Flag for U.S.A. Weather past 2 weeks in Concord, California, U.S.A.

Now
53 °F

Clear.


Feels Like: 51 °F
Forecast: 41 / 64 °F
Wind: 6 mph from Southeast

Location: Buchanan Field

Current Time: Jan 31, 2015 at 11:43:26 PM

Latest Report: Jan 31, 2015 at 10:53 PM


Visibility: 10 mi

Pressure: 30.00 "Hg

Humidity: 47%

Dew point: 33 °F

Location of ConcordLocation

Historic Weather in Concord — Graph

°F

Concord temperature yesterday

Maximum temperature yesterday: 70 °F (at 3:53 PM)
Minimum temperature yesterday: 43 °F (at 6:53 AM)
Average temperature yesterday: 55 °F

Past Weeks' High & Low Weather Summary

 TemperatureHumidityPressure
High77 °F (Jan 31, 1:53 PM)97% (Jan 18, 9:53 AM)30.39 "Hg (Jan 18, 9:53 AM)
Low38 °F (Jan 23, 6:53 AM)14% (Jan 31, 12:53 PM)29.85 "Hg (Jan 30, 3:53 PM)
Average52 °F77%30.13 "Hg
* Reported Jan 16 9:53 PM — Jan 31 9:53 PM, Concord, Weather by CustomWeather, © 2014

Note: Actual official high and low records may vary slightly from our data, if they occured in-between our weather recording intervals... More about our weather records

Advertising

Concord weather history for previous 24 hours

 ConditionsComfort  
Time TempWeatherWind HumidityBarometerVisibility
9:53 PM
Jan 31
53 °FClear.5 mph47%29.99 "Hg10 mi
8:53 PM54 °FClear.No wind49%29.98 "Hg10 mi
7:53 PM58 °FClear.No wind41%29.96 "Hg10 mi
6:53 PM60 °FClear.5 mph38%29.94 "Hg10 mi
5:53 PM66 °FClear.No wind28%29.93 "Hg10 mi
4:53 PM73 °FSunny.5 mph20%29.92 "Hg10 mi
3:53 PM76 °FSunny.7 mph17%29.92 "Hg10 mi
2:53 PM76 °FSunny.7 mph14%29.92 "Hg10 mi
1:53 PM77 °FSunny.7 mph14%29.91 "Hg10 mi
12:53 PM75 °FSunny.8 mph14%29.93 "Hg10 mi
11:53 AM74 °FSunny.8 mph16%29.93 "Hg10 mi
10:53 AM71 °FSunny.9 mph19%29.96 "Hg10 mi
9:53 AM66 °FSunny.6 mph26%29.96 "Hg10 mi
8:53 AM56 °FSunny.6 mph51%29.96 "Hg10 mi
7:53 AM44 °FSunny.6 mph65%29.93 "Hg10 mi
6:53 AM40 °FClear.No wind83%29.92 "Hg10 mi
5:53 AM42 °FClear.No wind85%29.90 "Hg10 mi
4:53 AM42 °FClear.No wind89%29.89 "Hg10 mi
3:53 AM43 °FClear.No wind89%29.89 "Hg10 mi
2:53 AM45 °FClear.No wind86%29.89 "Hg10 mi
1:53 AM46 °FClear.3 mph89%29.88 "Hg10 mi
12:53 AM48 °FClear.No wind83%29.88 "Hg10 mi
11:53 PM
Jan 30
50 °FClear.3 mph80%29.89 "Hg10 mi
Weather by CustomWeather, © 2014

See weather overviewHow to use our weather pages